Shaw AFB, SC

10:36 PM EST on December 07, 2016 (GMT -0500)
Shaw Air Force Base

Weather History for KSSC - January, 2014

Change the Weather History Date:

Thursday, January 9, 2014

  Actual Average Record
Temperature  
Mean Temperature 42 °F -  
Max Temperature 57 °F 55 °F 73 °F (2003)
Min Temperature 27 °F 34 °F 20 °F (2015)
Degree Days  
Heating Degree Days 23    
Moisture  
Dew Point 26 °F    
Average Humidity 49    
Maximum Humidity 76    
Minimum Humidity 29    
Precipitation  
Precipitation 0.00 in - - ()
Sea Level Pressure  
Sea Level Pressure 30.47 in    
Wind  
Wind Speed 6 mph (NE)    
Max Wind Speed 12 mph    
Max Gust Speed -    
Visibility 10 miles    
Events Rain    
Averages and records for this station are not official NWS values.
T = Trace of Precipitation, MM = Missing Value Source: NWS Daily Summary

Daily Weather History Graph

Daily Weather History Graph

Search for Another Location

Airport or City:

Trip Planner

Search our weather history database for the weather conditions in past years. The results will help you decide how hot, cold, wet, or windy it might be!

Date:

Astronomy

Jan. 09, 2014 Rise Set
Actual Time 7:27 AM EST 5:30 PM EST
Civil Twilight 7:00 AM EST 5:57 PM EST
Nautical Twilight 6:29 AM EST 6:28 PM EST
Astronomical Twilight 5:59 AM EST 6:58 PM EST
Moon 12:50 PM EST (1/9) 1:40 AM EST (1/9)
Length of Visible Light 10h 57m
Length of Day
10h 02m
Waxing Gibbous, 66% of the Moon is Illuminated
Jan 9
Waxing Gibbous
Jan 15
Full
Jan 24
Last Quarter
Jan 30
New
Feb 6
First Quarter

Hourly Weather History & Observations

Time (EST) Temp. Windchill Dew Point Humidity Pressure Visibility Wind Dir Wind Speed Gust Speed Precip Events Conditions
12:58 AM 27.1 °F 20.7 °F 18.7 °F 70% 30.49 in 10.0 mi NE 5.8 mph - N/A   Overcast
1:58 AM 31.6 °F 28.3 °F 16.5 °F 54% 30.49 in 10.0 mi NNE 3.5 mph - N/A   Overcast
2:58 AM 32.4 °F 26.9 °F 18.5 °F 57% 30.49 in 10.0 mi NE 5.8 mph - N/A   Overcast
3:58 AM 32.7 °F 29.6 °F 18.3 °F 55% 30.49 in 10.0 mi NE 3.5 mph - N/A   Overcast
4:58 AM 34.0 °F 31.0 °F 18.1 °F 52% 30.49 in 10.0 mi NNE 3.5 mph - N/A   Overcast
5:58 AM 29.7 °F 22.8 °F 14.5 °F 53% 30.48 in 10.0 mi ENE 6.9 mph - N/A   Clear
6:58 AM 28.6 °F 22.4 °F 15.8 °F 59% 30.50 in 10.0 mi NE 5.8 mph - N/A   Clear
7:58 AM 35.6 °F 29.9 °F 14.5 °F 42% 30.51 in 10.0 mi ENE 6.9 mph - N/A   Overcast
8:58 AM 37.4 °F 31.4 °F 13.5 °F 38% 30.55 in 10.0 mi NE 8.1 mph - N/A   Clear
9:58 AM 42.4 °F 36.1 °F 12.4 °F 29% 30.56 in 10.0 mi NE 11.5 mph - N/A   Clear
10:58 AM 47.1 °F - 18.7 °F 32% 30.53 in 10.0 mi NE 6.9 mph - N/A   Clear
11:58 AM 51.1 °F - 25.2 °F 36% 30.50 in 10.0 mi ENE 8.1 mph - N/A   Clear
12:58 PM 54.0 °F - 26.6 °F 35% 30.47 in 10.0 mi East 8.1 mph - N/A   Clear
1:58 PM 55.6 °F - 28.0 °F 35% 30.44 in 10.0 mi East 9.2 mph - N/A   Mostly Cloudy
2:58 PM 57.7 °F - 29.8 °F 35% 30.42 in 10.0 mi East 8.1 mph - N/A   Scattered Clouds
3:58 PM 57.2 °F - 30.2 °F 36% 30.41 in 10.0 mi ENE 10.4 mph - N/A   Mostly Cloudy
4:28 PM 57.2 °F - 30.2 °F 36% 30.41 in 10.0 mi ENE 8.1 mph - N/A   Mostly Cloudy
4:58 PM 57.2 °F - 33.8 °F 41% 30.43 in 10.0 mi NNE 6.9 mph - N/A   Mostly Cloudy
6:58 PM 55.4 °F - 35.6 °F 47% 30.44 in 10.0 mi NNE 5.8 mph - N/A   Overcast
7:39 PM 53.6 °F - 33.8 °F 47% 30.44 in 10.0 mi NE 5.8 mph - N/A   Overcast
7:58 PM 53.6 °F - 35.6 °F 51% 30.46 in 10.0 mi NE 6.9 mph - N/A   Overcast
8:58 PM 51.8 °F - 35.6 °F 54% 30.46 in 10.0 mi NE 5.8 mph - N/A   Overcast
9:58 PM 50.4 °F - 34.3 °F 54% 30.44 in 10.0 mi NE 6.9 mph - N/A   Overcast
10:12 PM 50.0 °F - 35.6 °F 58% 30.43 in 10.0 mi ENE 6.9 mph - N/A Rain Light Rain
10:53 PM 46.4 °F 41.9 °F 39.2 °F 76% 30.42 in 10.0 mi ENE 9.2 mph - N/A   Overcast
10:58 PM 47.3 °F - 39.0 °F 73% 30.42 in 10.0 mi ENE 9.2 mph - 0.00 in   Overcast
11:58 PM 48.0 °F - 39.0 °F 71% 30.40 in 10.0 mi ENE 8.1 mph - N/A   Overcast